This is the latest recevied weather packets stored in our database for station/object N6SPP. If no packets are shown the sender has not sent any weather packets the latest 1 day(s).
| Time | Temp. | Humidity | Pressure | Rain* | Wind** | Luminosity | Snow |
|---|---|---|---|---|---|---|---|
| 1836274802 | 22.22° C | 60% | 1015.5 hPa | 0 mm | 0.89 m/s, 343° | 0 W/m² | - |
| 1836274500 | 22.78° C | 60% | 1015.2 hPa | 0 mm | 0.89 m/s, 342° | 0 W/m² | - |
| 1836274353 | 22.22° C | 61% | 1015.3 hPa | 0 mm | 0.45 m/s, 352° | 0 W/m² | - |
| 1836274198 | 22.78° C | 58% | 1015.3 hPa | 0 mm | 0.89 m/s, 7° | 0 W/m² | - |
| 1836273897 | 23.33° C | 57% | 1015.3 hPa | 0 mm | 0 m/s | 0 W/m² | - |
| 1778056832 | 13.33° C | 80% | 1021 hPa | 0 mm | 0 m/s | 0 W/m² | - |
| 1778056529 | 13.33° C | 80% | 1020.8 hPa | 0 mm | 0 m/s | 0 W/m² | - |
| 1778056226 | 13.33° C | 80% | 1020.8 hPa | 0 mm | 1.34 m/s, 56° | 0 W/m² | - |
| 1778055923 | 13.33° C | 80% | 1021 hPa | 0 mm | 0.89 m/s, 12° | 0 W/m² | - |
| 1778055619 | 13.33° C | 80% | 1020.9 hPa | 0 mm | 0.89 m/s, 309° | 0 W/m² | - |
| 1778055317 | 13.33° C | 81% | 1020.9 hPa | 0 mm | 0 m/s | 0 W/m² | - |
| 1778055015 | 13.33° C | 81% | 1020.7 hPa | 0 mm | 1.34 m/s, 280° | 0 W/m² | - |
| 1778054712 | 13.33° C | 81% | 1020.8 hPa | 0 mm | 0 m/s | 0 W/m² | - |
| 1778054409 | 13.33° C | 81% | 1020.8 hPa | 0 mm | 0.45 m/s, 291° | 0 W/m² | - |
| 1778054107 | 13.33° C | 81% | 1020.6 hPa | 0 mm | 0.45 m/s, 235° | 0 W/m² | - |
| 1778053803 | 12.78° C | 82% | 1020.6 hPa | 0 mm | 0.89 m/s, 143° | 0 W/m² | - |
| 1778053500 | 12.78° C | 82% | 1020.6 hPa | 0 mm | 1.34 m/s, 222° | 0 W/m² | - |
| 1778053198 | 12.78° C | 82% | 1020.3 hPa | 0 mm | 0.89 m/s, 172° | 0 W/m² | - |
| 1778052895 | 12.78° C | 83% | 1020.5 hPa | 0 mm | 0.89 m/s, 214° | 0 W/m² | - |
| 1778052592 | 12.78° C | 82% | 1020.5 hPa | 0 mm | 2.24 m/s, 178° | 0 W/m² | - |
| 1778052289 | 12.78° C | 82% | 1020.5 hPa | 0 mm | 1.79 m/s, 197° | 0 W/m² | - |
| 1778051987 | 12.78° C | 82% | 1020.6 hPa | 0 mm | 1.34 m/s, 209° | 0 W/m² | - |
| 1778051685 | 12.78° C | 82% | 1020.5 hPa | 0 mm | 1.34 m/s, 133° | 0 W/m² | - |
| 1778051382 | 12.78° C | 83% | 1020.5 hPa | 0 mm | 0.89 m/s, 1° | 0 W/m² | - |
| 1778051079 | 12.78° C | 82% | 1020.3 hPa | 0 mm | 0 m/s | 0 W/m² | - |
* Rain latest hour (hover to see other rain measurements)
** Current wind speed in m/s (hover to see current wind gust speed)